EW8311 Weather Reports


Display with metric or nautical units.
time (UTC)temp
F
wind
direction
speed
MPH
gust
MPH
rain 1hr
in
rain 24hr
in
rain mn
in
humidity
%
barometer
mb
20260905203006 95 318 5.0 10.0 0.00 0.00 0.00 33 1005.3
20260905201504 95 304 3.0 11.0 0.00 0.00 0.00 33 1005.5
20260905200002 94 321 1.0 10.0 0.00 0.00 0.00 35 1005.7
20260905194600 93 303 4.0 7.0 0.00 0.00 0.00 35 1006.0
20260905193057 94 288 3.0 6.0 0.00 0.00 0.00 36 1006.2
20260905191555 93 263 3.0 8.0 0.00 0.00 0.00 36 1006.4
20260905190053 92 266 1.0 10.0 0.00 0.00 0.00 37 1006.7
20260905184557 92 285 1.0 6.0 0.00 0.00 0.00 38 1006.9
20260905183048 91 331 2.0 6.0 0.00 0.00 0.00 39 1007.1
20260905181548 91 321 3.0 7.0 0.00 0.00 0.00 39 1007.3
20260905180044 89 285 1.0 5.0 0.00 0.00 0.00 40 1007.4
20260905174543 89 348 3.0 7.0 0.00 0.00 0.00 39 1007.4
20260905173141 89 352 2.0 6.0 0.00 0.00 0.00 41 1007.6
20260905171538 87 250 0.0 4.0 0.00 0.00 0.00 44 1007.6
20260905170036 86 267 2.0 5.0 0.00 0.00 0.00 46 1007.8
20260905164533 86 270 0.0 2.0 0.00 0.00 0.00 48 1007.8
20260905163029 84 323 2.0 3.0 0.00 0.00 0.00 50 1007.8
20260905161527 84 278 0.0 2.0 0.00 0.00 0.00 52 1007.8
20260905160025 83 305 0.0 2.0 0.00 0.00 0.00 53 1007.8
20260905154523 82 319 1.0 3.0 0.00 0.00 0.00 55 1007.8
20260905153026 81 251 0.0 1.0 0.00 0.00 0.00 59 1007.9
20260905151515 80 310 0.0 1.0 0.00 0.00 0.00 61 1007.8
20260905150019 78 259 0.0 1.0 0.00 0.00 0.00 64 1007.8
20260905144515 77 342 0.0 0.0 0.00 0.00 0.00 68 1007.9
20260905143017 76 342 0.0 1.0 0.00 0.00 0.00 69 1007.9
20260905141513 75 24 0.0 0.0 0.00 0.00 0.00 70 1007.7
20260905140009 75 24 0.0 0.0 0.00 0.00 0.00 71 1007.6
20260905134516 74 24 0.0 0.0 0.00 0.00 0.00 73 1007.2
20260905133003 72 22 0.0 0.0 0.00 0.00 0.00 72 1006.9
20260905131502 72 22 0.0 0.0 0.00 0.00 0.00 73 1006.8
20260905130100 73 22 0.0 0.0 0.00 0.00 0.00 71 1006.6
20260905124559 74 22 0.0 0.0 0.00 0.00 0.00 71 1006.6
20260905123111 73 22 0.0 0.0 0.00 0.00 0.00 72 1006.4
20260905121558 73 22 0.0 1.0 0.00 0.00 0.00 72 1006.3
20260905120057 73 23 0.0 0.0 0.00 0.00 0.00 71 1006.3
20260905114558 73 69 0.0 0.0 0.00 0.00 0.00 73 1006.2
20260905113100 73 69 0.0 0.0 0.00 0.00 0.00 71 1006.2
20260905111559 73 76 0.0 0.0 0.00 0.00 0.00 73 1006.2
20260905110053 73 75 0.0 0.0 0.00 0.00 0.00 73 1006.3
20260905104551 74 76 0.0 0.0 0.00 0.00 0.00 71 1006.2
20260905103057 74 75 0.0 0.0 0.00 0.00 0.00 70 1006.2
20260905101547 75 76 0.0 0.0 0.00 0.00 0.00 69 1006.3
20260905100055 76 75 0.0 0.0 0.00 0.00 0.00 65 1006.3
20260905094545 75 72 0.0 0.0 0.00 0.00 0.00 66 1006.4
20260905093045 75 72 0.0 0.0 0.00 0.00 0.00 67 1006.3
20260905091551 76 72 0.0 0.0 0.00 0.00 0.00 65 1006.3
20260905090042 76 73 0.0 0.0 0.00 0.00 0.00 65 1006.4
20260905084541 76 12 0.0 0.0 0.00 0.00 0.00 65 1006.4
20260905083040 76 3 0.0 0.0 0.00 0.00 0.00 67 1006.5
20260905081538 76 3 0.0 0.0 0.00 0.00 0.00 67 1006.5
20260905080107 76 3 0.0 0.0 0.00 0.00 0.00 65 1006.6
20260905074537 76 3 0.0 0.0 0.00 0.00 0.00 67 1006.6
20260905073033 77 3 0.0 0.0 0.00 0.00 0.00 66 1006.6
20260905071531 78 3 0.0 0.0 0.00 0.00 0.00 62 1006.6
20260905070031 79 3 0.0 0.0 0.00 0.00 0.00 61 1006.5
20260905064525 78 353 0.0 0.0 0.00 0.00 0.00 62 1006.6
20260905063025 80 353 0.0 1.0 0.00 0.00 0.00 60 1006.5
20260905061526 79 353 0.0 1.0 0.00 0.00 0.00 61 1006.4
20260905060039 80 353 0.0 1.0 0.00 0.00 0.00 58 1006.5
20260905054523 81 103 0.0 2.0 0.00 0.00 0.00 55 1006.5
20260905053023 82 91 0.0 0.0 0.00 0.00 0.00 54 1006.2
20260905051525 82 91 0.0 1.0 0.00 0.00 0.00 53 1006.2
20260905050026 83 91 0.0 1.0 0.00 0.00 0.00 52 1006.1
20260905044523 84 92 0.0 3.0 0.00 0.00 0.00 45 1006.0
20260905043021 84 101 2.0 5.0 0.00 0.00 0.00 40 1006.1
20260905041521 83 113 0.0 1.0 0.00 0.00 0.00 44 1005.9
20260905040026 83 333 0.0 0.0 0.00 0.00 0.00 44 1005.9
20260905034519 85 333 0.0 1.0 0.00 0.00 0.00 40 1005.7
20260905033018 85 333 0.0 1.0 0.00 0.00 0.00 38 1005.5
20260905031532 85 319 1.0 1.0 0.00 0.00 0.00 39 1005.2
20260905030018 86 318 1.0 2.0 0.00 0.00 0.00 37 1005.1
20260905024517 86 310 1.0 2.0 0.00 0.00 0.00 37 1004.9
20260905023019 87 310 1.0 2.0 0.00 0.00 0.00 35 1004.5
20260905021529 88 308 1.0 2.0 0.00 0.00 0.00 34 1004.5
20260905020015 89 303 2.0 3.0 0.00 0.00 0.00 33 1004.3
20260905014514 90 316 1.0 5.0 0.00 0.00 0.00 31 1004.2
20260905013015 90 314 3.0 7.0 0.00 0.00 0.00 32 1004.1
20260905011512 91 322 3.0 7.0 0.00 0.00 0.00 32 1004.0
20260905010011 92 299 3.0 10.0 0.00 0.00 0.00 31 1004.0
20260905004513 93 329 5.0 9.0 0.00 0.00 0.00 31 1003.9
20260905003020 93 300 3.0 7.0 0.00 0.00 0.00 31 1003.8
20260905001510 93 321 4.0 11.0 0.00 0.00 0.00 32 1003.7
20260905000009 94 329 6.0 13.0 0.00 0.00 0.00 29 1003.6
20260904234508 94 296 5.0 11.0 0.00 0.00 0.00 28 1003.5
20260904233021 95 297 5.0 13.0 0.00 0.00 0.00 27 1003.7
20260904231508 94 311 6.0 13.0 0.00 0.00 0.00 27 1003.7
20260904230014 94 313 5.0 12.0 0.00 0.00 0.00 29 1003.8
20260904224505 95 337 4.0 12.0 0.00 0.00 0.00 31 1003.6
20260904223004 95 255 4.0 9.0 0.00 0.00 0.00 32 1003.9
20260904221502 95 293 4.0 9.0 0.00 0.00 0.00 32 1004.0
20260904220109 95 346 5.0 10.0 0.00 0.00 0.00 32 1004.2
20260904214559 94 327 3.0 8.0 0.00 0.00 0.00 32 1004.3
20260904213058 95 264 2.0 6.0 0.00 0.00 0.00 31 1004.6
20260904211555 94 276 1.0 5.0 0.00 0.00 0.00 30 1004.8
20260904210057 94 314 2.0 6.0 0.00 0.00 0.00 30 1005.0
20260904204549 93 329 0.0 8.0 0.00 0.00 0.00 34 1005.0
20260904203048 92 327 3.0 8.0 0.00 0.00 0.00 39 1005.4